Index of /pub/macports/release/ports/kde

[ICO]NameLast modifiedSize

[PARENTDIR]Parent Directory  -
[DIR]OSXdg-icons/2018-04-26 22:17 -
[DIR]amarok/2017-08-28 23:17 -
[DIR]analitza/2019-01-23 22:29 -
[DIR]ark/2018-04-21 00:10 -
[DIR]attica/2018-04-21 00:10 -
[DIR]baloo-widgets/2018-04-21 00:10 -
[DIR]baloo/2018-04-21 00:10 -
[DIR]blinken/2018-04-21 00:10 -
[DIR]bomber/2018-04-21 00:10 -
[DIR]bovo/2018-04-21 00:10 -
[DIR]cantor/2018-04-21 00:10 -
[DIR]cervisia/2019-05-25 18:27 -
[DIR]choqok/2017-08-23 06:13 -
[DIR]ciment-icons/2018-08-18 16:33 -
[DIR]dictconv/2017-08-23 06:13 -
[DIR]digikam/2018-12-23 01:49 -
[DIR]dolphin-plugins/2019-05-25 18:27 -
[DIR]dragon/2019-05-25 18:27 -
[DIR]ffmpegthumbs/2019-05-25 18:27 -
[DIR]granatier/2018-04-21 00:10 -
[DIR]gwenview/2018-12-23 01:49 -
[DIR]juk/2019-05-25 18:27 -
[DIR]kactivities/2018-04-21 00:10 -
[DIR]kalgebra/2018-04-21 00:10 -
[DIR]kalzium/2018-04-21 00:10 -
[DIR]kamera/2018-04-21 00:10 -
[DIR]kanagram/2018-04-21 00:10 -
[DIR]kapman/2018-04-21 00:10 -
[DIR]kapptemplate/2019-05-25 18:27 -
[DIR]kate/2018-04-21 00:10 -
[DIR]katomic/2018-04-21 00:10 -
[DIR]kblackbox/2018-04-21 00:10 -
[DIR]kblocks/2018-04-21 00:10 -
[DIR]kbounce/2018-04-21 00:10 -
[DIR]kbreakout/2018-04-21 00:10 -
[DIR]kbruch/2018-04-21 00:10 -
[DIR]kcachegrind4/2019-05-25 18:27 -
[DIR]kcalc/2018-04-21 00:10 -
[DIR]kcharselect/2018-04-21 00:10 -
[DIR]kcm-baloo-advanced/2018-04-21 00:10 -
[DIR]kcolorchooser/2018-04-21 00:10 -
[DIR]kcron/2019-06-02 16:44 -
[DIR]kde-dev-scripts/2019-05-25 18:27 -
[DIR]kde-dev-utils/2019-05-25 18:27 -
[DIR]kde-extra-cmake-modules/2019-07-10 01:15 -
[DIR]kde-l10n-ar/2018-04-21 00:10 -
[DIR]kde-l10n-bg/2018-04-21 00:10 -
[DIR]kde-l10n-bs/2018-04-21 00:10 -
[DIR]kde-l10n-ca-valencia/2018-04-21 00:10 -
[DIR]kde-l10n-ca/2018-04-21 00:10 -
[DIR]kde-l10n-cs/2018-04-21 00:10 -
[DIR]kde-l10n-da/2018-04-21 00:10 -
[DIR]kde-l10n-de/2018-04-21 00:10 -
[DIR]kde-l10n-el/2018-04-21 00:10 -
[DIR]kde-l10n-en_GB/2018-04-21 00:10 -
[DIR]kde-l10n-eo/2018-01-02 08:24 -
[DIR]kde-l10n-es/2018-04-21 00:10 -
[DIR]kde-l10n-et/2018-04-21 00:10 -
[DIR]kde-l10n-eu/2018-04-21 00:10 -
[DIR]kde-l10n-fa/2018-04-21 00:10 -
[DIR]kde-l10n-fi/2018-04-21 00:10 -
[DIR]kde-l10n-fr/2018-04-21 00:10 -
[DIR]kde-l10n-fy/2018-01-02 08:24 -
[DIR]kde-l10n-ga/2018-04-21 00:10 -
[DIR]kde-l10n-gl/2018-04-21 00:10 -
[DIR]kde-l10n-he/2018-04-21 00:10 -
[DIR]kde-l10n-hi/2018-04-21 00:10 -
[DIR]kde-l10n-hr/2018-04-21 00:10 -
[DIR]kde-l10n-hu/2018-04-21 00:10 -
[DIR]kde-l10n-ia/2018-04-21 00:10 -
[DIR]kde-l10n-id/2018-04-21 00:10 -
[DIR]kde-l10n-is/2018-04-21 00:10 -
[DIR]kde-l10n-it/2018-04-21 00:10 -
[DIR]kde-l10n-ja/2018-04-21 00:10 -
[DIR]kde-l10n-kk/2018-04-21 00:10 -
[DIR]kde-l10n-km/2018-04-21 00:10 -
[DIR]kde-l10n-kn/2018-01-02 08:24 -
[DIR]kde-l10n-ko/2018-04-21 00:10 -
[DIR]kde-l10n-lt/2018-04-21 00:10 -
[DIR]kde-l10n-lv/2018-04-21 00:10 -
[DIR]kde-l10n-mr/2018-04-21 00:10 -
[DIR]kde-l10n-nb/2018-04-21 00:10 -
[DIR]kde-l10n-nds/2018-04-21 00:10 -
[DIR]kde-l10n-nl/2018-04-21 00:10 -
[DIR]kde-l10n-nn/2018-04-21 00:10 -
[DIR]kde-l10n-pa/2018-04-21 00:10 -
[DIR]kde-l10n-pl/2018-04-21 00:10 -
[DIR]kde-l10n-pt/2018-04-21 00:10 -
[DIR]kde-l10n-pt_BR/2018-04-21 00:10 -
[DIR]kde-l10n-ro/2018-04-21 00:10 -
[DIR]kde-l10n-ru/2018-04-21 00:10 -
[DIR]kde-l10n-si/2018-04-21 00:10 -
[DIR]kde-l10n-sk/2018-04-21 00:10 -
[DIR]kde-l10n-sl/2018-04-21 00:10 -
[DIR]kde-l10n-sr/2018-04-21 00:10 -
[DIR]kde-l10n-sv/2018-04-21 00:10 -
[DIR]kde-l10n-tg/2018-04-21 00:10 -
[DIR]kde-l10n-th/2018-04-21 00:10 -
[DIR]kde-l10n-tr/2018-04-21 00:10 -
[DIR]kde-l10n-ug/2018-04-21 00:10 -
[DIR]kde-l10n-uk/2018-04-21 00:10 -
[DIR]kde-l10n-vi/2018-04-21 00:10 -
[DIR]kde-l10n-wa/2018-04-21 00:10 -
[DIR]kde-l10n-zh_CN/2018-04-21 00:10 -
[DIR]kde-l10n-zh_TW/2018-04-21 00:10 -
[DIR]kde-wallpapers/2018-04-21 00:10 -
[DIR]kde/2018-04-21 00:10 -
[DIR]kde4-baseapps/2018-04-21 00:10 -
[DIR]kde4-filelight/2018-04-21 00:10 -
[DIR]kde4-runtime/2018-12-23 01:49 -
[DIR]kde4-workspace/2018-12-09 04:38 -
[DIR]kdeadmin/2018-04-21 00:10 -
[DIR]kdeartwork/2018-12-23 01:49 -
[DIR]kdebindings4/2018-04-21 00:10 -
[DIR]kdeedu4/2018-04-21 00:10 -
[DIR]kdegames4/2018-04-21 00:10 -
[DIR]kdegraphics-strigi-analyzer/2018-04-21 00:10 -
[DIR]kdegraphics-thumbnailers/2018-12-23 01:49 -
[DIR]kdegraphics4/2018-12-23 01:49 -
[DIR]kdelibs4/2019-09-08 00:07 -
[DIR]kdemultimedia4/2018-04-21 00:10 -
[DIR]kdenetwork-filesharing/2019-05-25 18:27 -
[DIR]kdenetwork-strigi-analyzers/2019-05-25 18:27 -
[DIR]kdenetwork4/2018-04-21 00:10 -
[DIR]kdepim4-runtime/2018-04-21 00:10 -
[DIR]kdepim4/2018-04-21 00:10 -
[DIR]kdepimlibs4/2019-06-02 16:44 -
[DIR]kdesdk-kioslaves/2019-05-25 18:27 -
[DIR]kdesdk-strigi-analyzers/2019-05-25 18:27 -
[DIR]kdesdk-thumbnailers/2019-05-25 18:27 -
[DIR]kdesdk4/2018-04-21 00:10 -
[DIR]kdesvn/2017-08-23 06:13 -
[DIR]kdetoys4/2018-04-21 00:10 -
[DIR]kdeutils4/2018-04-21 00:10 -
[DIR]kdevelop/2018-06-21 06:10 -
[DIR]kdevplatform/2019-01-07 21:00 -
[DIR]kdewebdev/2018-04-21 00:10 -
[DIR]kdiamond/2018-04-21 00:10 -
[DIR]kdiskfree/2018-04-21 00:10 -
[DIR]kdnssd/2019-05-25 18:27 -
[DIR]kfilemetadata/2018-12-24 14:32 -
[DIR]kfloppy/2018-04-21 00:10 -
[DIR]kfourinline/2018-04-21 00:10 -
[DIR]kgeography/2018-04-21 00:10 -
[DIR]kget/2019-05-25 18:27 -
[DIR]kgoldrunner/2018-04-21 00:10 -
[DIR]kgpg/2018-04-21 00:10 -
[DIR]kgraphviewer/2019-07-11 18:52 -
[DIR]khangman/2018-04-21 00:10 -
[DIR]kig/2018-04-21 00:10 -
[DIR]kigo/2018-04-21 00:10 -
[DIR]killbots/2018-04-21 00:10 -
[DIR]kimono/2018-04-21 00:10 -
[DIR]kiriki/2018-04-21 00:10 -
[DIR]kiten/2018-04-21 00:10 -
[DIR]kjumpingcube/2018-04-21 00:10 -
[DIR]klettres/2018-04-21 00:10 -
[DIR]klickety/2018-04-21 00:10 -
[DIR]klines/2018-04-21 00:10 -
[DIR]kmahjongg/2018-04-21 00:10 -
[DIR]kmines/2018-04-21 00:10 -
[DIR]kmix/2018-04-21 00:10 -
[DIR]kmplot/2018-04-21 00:10 -
[DIR]kmymoney4-devel/2019-02-07 04:47 -
[DIR]kmymoney4/2019-02-07 04:47 -
[DIR]knavalbattle/2018-04-21 00:10 -
[DIR]knetwalk/2018-04-21 00:10 -
[DIR]koffice2-devel/2018-01-29 01:15 -
[DIR]kolf/2018-04-21 00:10 -
[DIR]kollision/2018-04-21 00:10 -
[DIR]kolourpaint/2018-04-21 00:10 -
[DIR]kompare/2019-05-25 18:27 -
[DIR]konquest/2018-04-21 00:10 -
[DIR]konsole/2018-04-21 00:10 -
[DIR]konversation/2018-04-21 00:10 -
[DIR]kopete/2019-05-25 18:27 -
[DIR]korundum/2018-04-21 00:10 -
[DIR]kpat/2018-04-21 00:10 -
[DIR]kqtquickcharts/2018-04-21 00:10 -
[DIR]krdc/2019-05-25 18:27 -
[DIR]kreversi/2018-04-21 00:10 -
[DIR]kross-interpreters/2019-01-18 23:00 -
[DIR]kruler/2018-04-21 00:10 -
[DIR]krusader/2017-08-23 06:13 -
[DIR]ksaneplugin/2018-04-21 00:10 -
[DIR]kscd/2018-04-21 00:10 -
[DIR]kshisen/2018-04-21 00:10 -
[DIR]ksirk/2018-04-21 00:10 -
[DIR]ksnakeduel/2018-04-21 00:10 -
[DIR]kspaceduel/2018-04-21 00:10 -
[DIR]ksquares/2018-04-21 00:10 -
[DIR]kstars/2018-04-21 00:10 -
[DIR]ksudoku/2018-04-21 00:10 -
[DIR]ksystemlog/2018-04-21 00:10 -
[DIR]ktimer/2018-04-21 00:10 -
[DIR]ktorrent4/2019-08-13 06:11 -
[DIR]ktouch/2018-04-21 00:10 -
[DIR]ktuberling/2018-04-21 00:10 -
[DIR]kturtle/2018-04-21 00:10 -
[DIR]kubrick/2018-04-21 00:10 -
[DIR]kuser/2019-06-02 16:44 -
[DIR]kwallet/2018-04-21 00:10 -
[DIR]kwordquiz/2018-04-21 00:10 -
[DIR]libalkimia/2019-02-07 04:47 -
[DIR]libkcddb/2019-05-25 18:27 -
[DIR]libkcompactdisc/2019-05-25 18:27 -
[DIR]libkdcraw/2018-07-29 00:22 -
[DIR]libkdeedu/2018-04-21 00:10 -
[DIR]libkdegames/2019-05-25 18:27 -
[DIR]libkexiv2/2018-12-25 01:43 -
[DIR]libkgapi/2018-04-21 00:10 -
[DIR]libkipi/2018-04-21 00:10 -
[DIR]libkmahjongg/2018-04-21 00:10 -
[DIR]libkomparediff2/2019-05-25 18:27 -
[DIR]libksane/2018-04-21 00:10 -
[DIR]libktorrent/2019-08-13 06:11 -
[DIR]lokalize/2019-05-25 18:27 -
[DIR]lskat/2018-04-21 00:10 -
[DIR]marble/2018-04-21 00:10 -
[DIR]massif-visualizer/2019-07-11 18:52 -
[DIR]mate-icons/2018-04-26 22:17 -
[DIR]mobipocket/2018-04-21 00:10 -
[DIR]mplayerthumbs/2019-05-25 18:27 -
[DIR]nepomuk-core/2019-05-29 22:52 -
[DIR]nepomuk-widgets/2018-04-21 00:10 -
[DIR]okteta/2019-05-25 18:27 -
[DIR]okular/2018-12-23 01:49 -
[DIR]oxygen-icons/2018-04-21 00:10 -
[DIR]pairs/2018-04-21 00:10 -
[DIR]palapeli/2019-08-27 08:17 -
[DIR]parley/2018-04-21 00:10 -
[DIR]perlkde/2018-04-21 00:10 -
[DIR]perlqt/2018-04-21 00:10 -
[DIR]picmi/2018-04-21 00:10 -
[DIR]polkit-qt/2018-04-26 22:17 -
[DIR]poxml/2019-05-25 18:27 -
[DIR]prison/2018-01-02 08:24 -
[DIR]py-pykde4/2018-04-26 22:17 -
[DIR]qtcurve/2019-08-23 11:33 -
[DIR]qtruby/2018-04-21 00:10 -
[DIR]qyoto/2018-04-21 00:10 -
[DIR]rkward/2018-02-01 01:22 -
[DIR]rocs/2018-04-21 00:10 -
[DIR]shared-desktop-ontologies/2017-08-23 06:13 -
[DIR]skrooge/2019-02-07 04:47 -
[DIR]smokegen/2018-04-21 00:10 -
[DIR]smokekde/2019-09-08 00:07 -
[DIR]smokeqt/2018-04-21 00:10 -
[DIR]step/2018-04-21 00:10 -
[DIR]svgpart/2018-04-21 00:10 -
[DIR]sweeper/2018-04-21 00:10 -
[DIR]tellico/2019-03-23 18:55 -
[DIR]umbrello/2019-08-13 06:11 -

Apache/2.4.33 (Unix) OpenSSL/1.0.2q Server at rsync3.jp.gentoo.org Port 80